Find Starlink 30378

NORAD ID: 57787 Int'l Des: 2023-134 Owner: SPXS Country: US Constellation: starlink operational
LEOCIRCULAR

現在のビュー

3D地球を読み込み中...

About Starlink 30378

Starlink 30378 (NORAD 57787) is a starlink constellation satellite (v2 mini) launched Sep 4, 2023 by SPXS of US. It operates in LEO, CIRCULAR orbit with a mass of 730.00 kg.

次回通過

Passes for default location (London). Set your location on the main map for personalized predictions.

高度履歴

Loading altitude history...

軌道要素

1 57787U 23134S 26236.52856853 .00001620 00000-0 68393-4 0 9990
2 57787 43.0021 326.7843 0001490 272.2841 87.7840 15.27580041165176
Epoch: Aug 24, 2026 • Age: 8 hours

現在のステータス

高度 494.7 km
遠地点 / 近地点 N/A
速度 7.62 km/s
衛星直下点 -41.40°S, 21.23°W
打ち上げ日 Sep 4, 2023
運用期間 2.9 years
タイプ internet

技術仕様

分類 Payload
質量 730.00 kg
乾燥質量 700.00 kg
総質量 730.00 kg
長さ 0.30 m
直径 4.10 m
スパン 29.00 m
形状 Box + pan
製造者 SPXS
バスタイプ Starlink V2M
フェーズステータス In Orbit
所有者/国 SPXS/US

Most Searched